Weather History for Houghton Lake, MI

Change the Weather History Date:

Monday, November 19, 2012

  Actual Average Record
Temperature  
Mean Temperature 37 °F 34 °F  
Max Temperature 50 °F 41 °F 69 °F (1953)
Min Temperature 24 °F 27 °F 6 °F (1936)
Degree Days  
Heating Degree Days 28 31  
Month to date heating degree days 536 533  
Since 1 July heating degree days 1377 1511  
Moisture  
Dew Point 30 °F    
Average Humidity 76    
Maximum Humidity 100    
Minimum Humidity 52    
Precipitation  
Precipitation 0.00 in 0.08 in 1.00 in (1921)
Month to date precipitation 0.23 1.50  
Year to date precipitation 29.96 26.28  
Snow  
Snow 0.00 in 0.30 in 4.10 in (1968)
Month to date snowfall 0.2 4.1  
Since 1 July snowfall 0.2 4.7  
Snow Depth 0.00 in    
Sea Level Pressure  
Sea Level Pressure 30.32 in    
Wind  
Wind Speed 3 mph (ESE)    
Max Wind Speed 9 mph    
Max Gust Speed 10 mph    
Visibility 6 miles    
Events      
T = Trace of Precipitation, MM = Missing Value Source: NWS Daily Summary

Daily Weather History Graph

Daily Weather History Graph

Search for Another Location

Airport:

Trip Planner

Search our weather history database for the weather conditions in past years. The results will help you decide how hot, cold, wet, or windy it might be!

Date:

Astronomy

Nov. 19, 2012 Rise Set
Actual Time 7:40 AM EST 5:07 PM EST
Civil Twilight 7:08 AM EST 5:39 PM EST
Nautical Twilight 6:33 AM EST 6:14 PM EST
Astronomical Twilight 5:58 AM EST 6:49 PM EST
Moon 12:37 PM EST (11/19) 11:40 PM EST (11/19)
Length of Visible Light 10h 30m
Length of Day
9h 26m
Waxing Crescent, 40% of the Moon is Illuminated
Nov 19
Waxing Crescent
Nov 20
First Quarter
Nov 28
Full
Dec 6
Last Quarter
Dec 13
New

Hourly Weather History & Observations

Time (EST) Temp. Windchill Dew Point Humidity Pressure Visibility Wind Dir Wind Speed Gust Speed Precip Events Conditions
12:53 AM 32.0 °F - 30.0 °F 92% 30.41 in 3.0 mi Calm Calm - N/A   Clear
1:05 AM 30.2 °F 26.7 °F 30.2 °F 100% 30.38 in 2.5 mi East 3.5 mph - N/A   Clear
1:39 AM 30.2 °F - 30.2 °F 100% 30.37 in 1.8 mi Calm Calm - N/A   Clear
1:46 AM 30.2 °F - 30.2 °F 100% 30.37 in 3.0 mi Calm Calm - N/A   Clear
1:53 AM 30.0 °F - 28.9 °F 96% 30.40 in 1.5 mi Calm Calm - N/A   Clear
2:14 AM 26.6 °F - 26.6 °F 100% 30.37 in 2.0 mi Calm Calm - N/A   Clear
2:46 AM 28.4 °F - 26.6 °F 93% 30.37 in 3.0 mi Calm Calm - N/A   Clear
2:53 AM 28.0 °F - 26.1 °F 92% 30.41 in 3.0 mi Calm Calm - N/A   Clear
3:53 AM 28.0 °F 24.2 °F 27.0 °F 96% 30.40 in 5.0 mi ESE 3.5 mph - N/A   Clear
4:53 AM 28.0 °F - 26.1 °F 92% 30.38 in 6.0 mi Calm Calm - N/A   Clear
5:53 AM 25.0 °F 20.7 °F 24.1 °F 96% 30.39 in 4.0 mi ENE 3.5 mph - N/A   Clear
6:53 AM 25.0 °F 20.7 °F 24.1 °F 96% 30.38 in 5.0 mi ENE 3.5 mph - N/A   Clear
7:53 AM 26.1 °F 21.9 °F 24.1 °F 92% 30.38 in 4.0 mi ENE 3.5 mph - N/A   Clear
8:53 AM 25.0 °F 19.3 °F 23.0 °F 92% 30.38 in 5.0 mi East 4.6 mph - N/A   Clear
9:37 AM 32.0 °F - 30.2 °F 93% 30.32 in 2.5 mi Calm Calm - N/A   Clear
9:53 AM 34.0 °F - 32.0 °F 92% 30.36 in 3.0 mi Calm Calm - N/A   Clear
10:53 AM 42.1 °F 40.2 °F 36.0 °F 79% 30.35 in 8.0 mi Variable 3.5 mph - N/A   Clear
11:53 AM 46.9 °F - 34.0 °F 61% 30.32 in 10.0 mi Calm Calm - N/A   Clear
12:53 PM 50.0 °F - 33.1 °F 52% 30.29 in 10.0 mi South 6.9 mph - N/A   Clear
1:53 PM 48.0 °F - 32.0 °F 54% 30.28 in 10.0 mi South 6.9 mph - N/A   Clear
2:53 PM 46.9 °F - 30.9 °F 54% 30.26 in 10.0 mi SE 4.6 mph - N/A   Clear
3:53 PM 46.9 °F - 30.0 °F 52% 30.26 in 10.0 mi SE 4.6 mph - N/A   Mostly Cloudy
4:53 PM 46.0 °F 43.1 °F 30.0 °F 54% 30.26 in 10.0 mi South 5.8 mph - N/A   Mostly Cloudy
5:53 PM 43.0 °F 41.3 °F 33.1 °F 68% 30.25 in 10.0 mi SSE 3.5 mph - N/A   Mostly Cloudy
6:53 PM 39.9 °F 37.8 °F 33.1 °F 77% 30.24 in 10.0 mi ESE 3.5 mph - N/A   Clear
7:53 PM 39.9 °F 37.8 °F 35.1 °F 83% 30.22 in 10.0 mi ESE 3.5 mph - N/A   Clear
8:53 PM 39.0 °F 36.8 °F 34.0 °F 82% 30.22 in 10.0 mi East 3.5 mph - N/A   Scattered Clouds
9:53 PM 39.9 °F - 35.1 °F 83% 30.20 in 10.0 mi Calm Calm - N/A   Partly Cloudy
10:53 PM 37.9 °F - 34.0 °F 86% 30.18 in 10.0 mi Calm Calm - N/A   Mostly Cloudy
11:53 PM 37.0 °F 34.5 °F 34.0 °F 89% 30.17 in 10.0 mi ESE 3.5 mph - N/A   Overcast